This is the latest recevied weather packets stored in our database for station/object IU2EBF-4. If no packets are shown the sender has not sent any weather packets the latest 10 day(s).
| Time | Temp. | Humidity | Pressure | Rain* | Wind** | Luminosity | Snow |
|---|---|---|---|---|---|---|---|
| 1777822610 | 15° C | 44% | 1044 hPa | - | - | - | - |
| 1777821885 | 16.11° C | 43% | 1044 hPa | - | - | - | - |
| 1777821161 | 17.78° C | 44% | 1044 hPa | - | - | - | - |
| 1777820436 | 18.33° C | 45% | 1044 hPa | - | - | - | - |
| 1777819711 | 18.33° C | 44% | 1044 hPa | - | - | - | - |
| 1777818986 | 18.33° C | 43% | 1044 hPa | - | - | - | - |
| 1777818261 | 19.44° C | 44% | 1045 hPa | - | - | - | - |
| 1777817536 | 20° C | 42% | 1045 hPa | - | - | - | - |
| 1777816812 | 20° C | 44% | 1045 hPa | - | - | - | - |
| 1777816087 | 20° C | 43% | 1045 hPa | - | - | - | - |
| 1777815362 | 20° C | 44% | 1045 hPa | - | - | - | - |
| 1777814637 | 20° C | 43% | 1045 hPa | - | - | - | - |
| 1777813912 | 21.67° C | 42% | 1045 hPa | - | - | - | - |
| 1777813220 | 22.78° C | 43% | 1045 hPa | - | - | - | - |
| 1777813187 | 22.78° C | 43% | 1045 hPa | - | - | - | - |
| 1777812504 | 22.78° C | 44% | 1045 hPa | - | - | - | - |
| 1777812462 | 22.78° C | 44% | 1045 hPa | - | - | - | - |
| 1777811738 | 21.67° C | 44% | 1045 hPa | - | - | - | - |
| 1777811013 | 21.11° C | 44% | 1045 hPa | - | - | - | - |
| 1777810288 | 21.67° C | 42% | 1045 hPa | - | - | - | - |
| 1777809563 | 25.56° C | 40% | 1045 hPa | - | - | - | - |
| 1777808838 | 25.56° C | 43% | 1045 hPa | - | - | - | - |
| 1777808113 | 24.44° C | 43% | 1045 hPa | - | - | - | - |
| 1777807388 | 25° C | 42% | 1045 hPa | - | - | - | - |
| 1777806664 | 24.44° C | 42% | 1045 hPa | - | - | - | - |
* Rain since midnight (hover to see other rain measurements)
** Current wind speed in m/s (hover to see current wind gust speed)